User: anonymous   Login
Location: Livonia
(42.3680°N, 83.3530°W)
Time: 22:05:07
(UTC-04:00)
Language:

MOZ.5/SAFIR/RUBIN 5/SL-8 - Orbit

View from above orbital plane
View from above orbital plane
View from above satellite
View from above satellite

Ground track
Ground track

The orbit data is extracted from the following two-line orbital elements,

1 28898U 05043G   17289.47740564 +.00000137 +00000-0 +37672-4 0  9991
2 28898 097.9443 074.0644 0020196 163.4227 196.7638 14.60211789260907
Epoch (UTC): 16 October 2017 11:27:27
Eccentricity: 0.0020196
inclination: 97.9443°
perigee height: 678 km
apogee height: 707 km
right ascension of ascending node: 74.0644°
argument of perigee: 163.4227°
revolutions per day: 14.60211789
mean anomaly at epoch: 196.7638°
orbit number at epoch: 26090

The dashed part of the orbit path shows where the satellite is in the earth's shadow,  

DLR